When you browse on this site, cookies collect data to enhance your experience and personalize the content and advertising you see.
Visit our Privacy Policy to learn more. By continuing to use the site, you agree to this use of cookies and data.
  • In France
  • List of Countries
  • For 7 days
  • Water Temperature
  • Weather Map
  • Weather Widgets
  • user-avatar
    Login

    Hourly Weather Giumri

    Today, 18 September, Wednesday

    Time Temperature Precipitation Wind Pressure Humidity
    00:00 +13°C° 0 mm 1 mps 635 mmHg 71%
    01:00 +13°C° 0 mm 1 mps 635 mmHg 71%
    02:00 +13°C° 0 mm 1 mps 635 mmHg 72%
    03:00 +12°C° 0 mm 1 mps 635 mmHg 73%
    04:00 +12°C° 0 mm 1 mps 635 mmHg 73%
    05:00 +12°C° 0 mm 1 mps 635 mmHg 74%
    06:00 +11°C° 0 mm 1 mps 635 mmHg 74%
    07:00 +13°C° 0 mm 1 mps 636 mmHg 66%
    08:00 +15°C° 0 mm 1 mps 637 mmHg 59%
    09:00 +18°C° 0 mm 1 mps 638 mmHg 51%
    10:00 +19°C° 0 mm 2 mps 638 mmHg 44%
    11:00 +20°C° 0 mm 2 mps 639 mmHg 38%
    12:00 +23°C° 0 mm 2 mps 639 mmHg 31%
    13:00 +24°C° 0 mm 2 mps 639 mmHg 29%
    14:00 +24°C° 0 mm 2 mps 639 mmHg 27%
    15:00 +25°C° 0 mm 2 mps 639 mmHg 25%
    16:00 +24°C° 0 mm 2 mps 638 mmHg 29%
    17:00 +22°C° 0 mm 1 mps 638 mmHg 34%
    18:00 +21°C° 0 mm 1 mps 637 mmHg 38%
    19:00 +19°C° 0 mm 1 mps 637 mmHg 41%
    20:00 +18°C° 0 mm 1 mps 637 mmHg 44%
    21:00 +16°C° 0 mm 1 mps 637 mmHg 47%
    22:00 +16°C° 0 mm 1 mps 637 mmHg 48%
    23:00 +15°C° 0 mm 1 mps 637 mmHg 49%

    Tomorrow, 19 September, Thursday

    Time Temperature Precipitation Wind Pressure Humidity
    00:00 +15°C° 0 mm 1 mps 637 mmHg 51%
    01:00 +15°C° 0 mm 1 mps 637 mmHg 51%
    02:00 +14°C° 0 mm 1 mps 636 mmHg 51%
    03:00 +14°C° 0 mm 1 mps 636 mmHg 51%
    04:00 +14°C° 0 mm 1 mps 636 mmHg 52%
    05:00 +13°C° 0 mm 1 mps 636 mmHg 52%
    06:00 +13°C° 0 mm 1 mps 636 mmHg 52%
    07:00 +15°C° 0 mm 1 mps 636 mmHg 47%
    08:00 +19°C° 0 mm 1 mps 637 mmHg 42%
    09:00 +21°C° 0 mm 1 mps 638 mmHg 37%
    10:00 +22°C° 0 mm 1 mps 638 mmHg 33%
    11:00 +24°C° 0 mm 2 mps 638 mmHg 28%
    12:00 +25°C° 0 mm 2 mps 639 mmHg 24%
    13:00 +26°C° 0 mm 2 mps 639 mmHg 23%
    14:00 +26°C° 0 mm 2 mps 638 mmHg 22%
    15:00 +27°C° 0 mm 2 mps 638 mmHg 20%
    16:00 +25°C° 0 mm 2 mps 638 mmHg 26%
    17:00 +23°C° 0 mm 2 mps 637 mmHg 32%
    18:00 +20°C° 0 mm 2 mps 637 mmHg 38%
    19:00 +19°C° 0 mm 2 mps 636 mmHg 44%
    20:00 +18°C° 0 mm 2 mps 636 mmHg 50%
    21:00 +16°C° 0 mm 2 mps 636 mmHg 56%
    22:00 +16°C° 0 mm 2 mps 636 mmHg 58%
    23:00 +15°C° 0 mm 2 mps 636 mmHg 59%

    Day after tomorrow, 20 September, Friday

    Time Temperature Precipitation Wind Pressure Humidity
    00:00 +15°C° 0 mm 2 mps 636 mmHg 61%
    01:00 +14°C° 0 mm 2 mps 635 mmHg 61%
    02:00 +14°C° 0 mm 2 mps 635 mmHg 60%
    03:00 +14°C° 0 mm 2 mps 635 mmHg 60%
    04:00 +13°C° 0 mm 1 mps 634 mmHg 59%
    05:00 +13°C° 0 mm 1 mps 634 mmHg 59%
    06:00 +12°C° 0 mm 1 mps 634 mmHg 58%
    07:00 +15°C° 0 mm 1 mps 635 mmHg 51%
    08:00 +18°C° 0 mm 1 mps 635 mmHg 45%
    09:00 +21°C° 0 mm 1 mps 636 mmHg 38%
    10:00 +21°C° 0 mm 2 mps 636 mmHg 33%
    11:00 +24°C° 0 mm 3 mps 636 mmHg 28%
    12:00 +26°C° 0 mm 4 mps 636 mmHg 23%
    13:00 +26°C° 0 mm 5 mps 636 mmHg 21%
    14:00 +27°C° 0 mm 5 mps 636 mmHg 19%
    15:00 +28°C° 0 mm 6 mps 636 mmHg 18%
    16:00 +26°C° 0 mm 5 mps 635 mmHg 26%
    17:00 +23°C° 0 mm 4 mps 634 mmHg 34%
    18:00 +21°C° 0 mm 3 mps 634 mmHg 43%
    19:00 +19°C° 0 mm 4 mps 633 mmHg 53%
    20:00 +18°C° 0 mm 4 mps 633 mmHg 63%
    21:00 +15°C° 0 mm 4 mps 633 mmHg 73%
    22:00 +14°C° 0 mm 4 mps 633 mmHg 75%
    23:00 +14°C° 0 mm 3 mps 632 mmHg 77%

    21 September, Saturday

    Time Temperature Precipitation Wind Pressure Humidity
    00:00 +13°C° 0 mm 3 mps 632 mmHg 80%
    01:00 +14°C° 0 mm 2 mps 632 mmHg 81%
    02:00 +13°C° 0 mm 2 mps 632 mmHg 82%
    03:00 +13°C° 0 mm 2 mps 631 mmHg 84%
    04:00 +12°C° 0 mm 2 mps 631 mmHg 83%
    05:00 +12°C° 0 mm 1 mps 631 mmHg 83%
    06:00 +11°C° 0 mm 1 mps 631 mmHg 83%
    07:00 +13°C° 0 mm 1 mps 631 mmHg 74%
    08:00 +15°C° 0 mm 2 mps 632 mmHg 66%
    09:00 +16°C° 0 mm 2 mps 633 mmHg 57%
    10:00 +18°C° 0 mm 3 mps 633 mmHg 50%
    11:00 +19°C° 0 mm 3 mps 633 mmHg 43%
    12:00 +20°C° 0 mm 4 mps 633 mmHg 37%
    13:00 +20°C° 0 mm 5 mps 633 mmHg 36%
    14:00 +20°C° 0 mm 6 mps 633 mmHg 36%
    15:00 +20°C° 0 mm 7 mps 633 mmHg 35%
    16:00 +17°C° 0 mm 6 mps 633 mmHg 42%
    17:00 +14°C° 0 mm 5 mps 632 mmHg 50%
    18:00 +12°C° 0 mm 4 mps 632 mmHg 57%
    19:00 +11°C° 0 mm 4 mps 632 mmHg 60%
    20:00 +9°C° 0 mm 3 mps 633 mmHg 63%
    21:00 +8°C° 0 mm 2 mps 633 mmHg 66%
    22:00 +7°C° 0 mm 2 mps 633 mmHg 67%
    23:00 +7°C° 0 mm 2 mps 633 mmHg 69%

    22 September, Sunday

    Time Temperature Precipitation Wind Pressure Humidity
    00:00 +6°C° 0 mm 2 mps 634 mmHg 70%
    01:00 +6°C° 0 mm 2 mps 634 mmHg 70%
    02:00 +5°C° 0 mm 2 mps 634 mmHg 69%
    03:00 +5°C° 0 mm 2 mps 634 mmHg 69%
    04:00 +4°C° 0 mm 2 mps 635 mmHg 70%
    05:00 +4°C° 0 mm 2 mps 635 mmHg 71%
    06:00 +3°C° 0 mm 2 mps 635 mmHg 72%
    07:00 +5°C° 0 mm 2 mps 636 mmHg 62%
    08:00 +6°C° 0 mm 2 mps 637 mmHg 52%
    09:00 +8°C° 0 mm 2 mps 637 mmHg 43%
    10:00 +10°C° 0 mm 2 mps 638 mmHg 38%
    11:00 +12°C° 0 mm 2 mps 638 mmHg 33%
    12:00 +14°C° 0 mm 2 mps 638 mmHg 28%
    13:00 +14°C° 0 mm 2 mps 638 mmHg 28%
    14:00 +15°C° 0 mm 2 mps 638 mmHg 27%
    15:00 +16°C° 0 mm 2 mps 638 mmHg 27%
    16:00 +13°C° 0 mm 3 mps 638 mmHg 33%
    17:00 +12°C° 0 mm 3 mps 637 mmHg 40%
    18:00 +10°C° 0 mm 3 mps 637 mmHg 46%
    19:00 +9°C° 0 mm 3 mps 637 mmHg 51%
    20:00 +8°C° 0 mm 2 mps 637 mmHg 56%
    21:00 +6°C° 0 mm 2 mps 637 mmHg 60%
    22:00 +6°C° 0 mm 2 mps 637 mmHg 60%
    23:00 +5°C° 0 mm 2 mps 637 mmHg 60%

    23 September, Monday

    Time Temperature Precipitation Wind Pressure Humidity
    00:00 +5°C° 0 mm 2 mps 637 mmHg 59%
    01:00 +5°C° 0 mm 2 mps 636 mmHg 58%
    02:00 +4°C° 0 mm 2 mps 636 mmHg 57%
    03:00 +4°C° 0 mm 2 mps 636 mmHg 56%
    04:00 +4°C° 0 mm 2 mps 636 mmHg 56%
    05:00 +5°C° 0 mm 1 mps 635 mmHg 55%
    06:00 +5°C° 0 mm 1 mps 635 mmHg 55%
    07:00 +7°C° 0 mm 1 mps 636 mmHg 49%
    08:00 +10°C° 0 mm 1 mps 637 mmHg 42%
    09:00 +12°C° 0 mm 1 mps 637 mmHg 36%
    10:00 +14°C° 0 mm 1 mps 637 mmHg 34%
    11:00 +16°C° 0 mm 2 mps 638 mmHg 31%
    12:00 +18°C° 0 mm 2 mps 638 mmHg 29%
    13:00 +18°C° 0 mm 2 mps 637 mmHg 29%
    14:00 +19°C° 0 mm 2 mps 637 mmHg 29%
    15:00 +19°C° 0 mm 2 mps 637 mmHg 28%
    16:00 +18°C° 0 mm 2 mps 636 mmHg 35%
    17:00 +16°C° 0 mm 2 mps 636 mmHg 42%
    18:00 +14°C° 0 mm 2 mps 635 mmHg 49%
    19:00 +13°C° 0 mm 2 mps 635 mmHg 55%
    20:00 +10°C° 0 mm 2 mps 635 mmHg 60%
    21:00 +9°C° 0 mm 2 mps 635 mmHg 66%
    22:00 +9°C° 0 mm 2 mps 634 mmHg 67%
    23:00 +8°C° 0 mm 2 mps 634 mmHg 69%
    Show more